Year,Month,Day,Hour,Minute,Value (Times are PST for temperature in C)
2008,04,30,00,00,4.20
2008,04,30,00,01,4.20
2008,04,30,00,02,4.20
2008,04,30,00,03,4.20
2008,04,30,00,04,4.20
2008,04,30,00,05,4.20
2008,04,30,00,06,4.20
2008,04,30,00,07,4.20
2008,04,30,00,08,4.20
2008,04,30,00,09,4.20
2008,04,30,00,10,4.20
2008,04,30,00,11,4.20
2008,04,30,00,12,4.20
2008,04,30,00,13,4.20
2008,04,30,00,14,4.20
2008,04,30,00,15,4.20
2008,04,30,00,16,4.20
2008,04,30,00,17,4.20
2008,04,30,00,18,4.20
2008,04,30,00,19,4.20
2008,04,30,00,20,4.10
2008,04,30,00,21,4.10
2008,04,30,00,22,4.10
2008,04,30,00,23,4.10
2008,04,30,00,24,4.10
2008,04,30,00,25,4.10
2008,04,30,00,26,4.10
2008,04,30,00,27,4.10
2008,04,30,00,28,4.10
2008,04,30,00,29,4.10
2008,04,30,00,30,4.10
2008,04,30,00,31,4.10
2008,04,30,00,32,4.10
2008,04,30,00,33,4.10
2008,04,30,00,34,4.10
2008,04,30,00,35,4.10
2008,04,30,00,36,4.10
2008,04,30,00,37,4.10
2008,04,30,00,38,4.00
2008,04,30,00,39,4.00
2008,04,30,00,40,4.00
2008,04,30,00,41,4.00
2008,04,30,00,42,3.90
2008,04,30,00,43,3.90
2008,04,30,00,44,3.90
2008,04,30,00,45,3.80
2008,04,30,00,46,3.80
2008,04,30,00,47,3.70
2008,04,30,00,48,3.60
2008,04,30,00,49,3.50
2008,04,30,00,50,3.40
2008,04,30,00,51,3.30
2008,04,30,00,52,3.30
2008,04,30,00,53,3.20
2008,04,30,00,54,3.20
2008,04,30,00,55,3.20
2008,04,30,00,56,3.20
2008,04,30,00,57,3.20
2008,04,30,00,58,3.20
2008,04,30,00,59,3.20
2008,04,30,01,00,3.30
2008,04,30,01,01,3.30
2008,04,30,01,02,3.40
2008,04,30,01,03,3.50
2008,04,30,01,04,3.60
2008,04,30,01,05,3.70
2008,04,30,01,06,3.80
2008,04,30,01,07,3.90
2008,04,30,01,08,4.00
2008,04,30,01,09,4.00
2008,04,30,01,10,4.10
2008,04,30,01,11,4.10
2008,04,30,01,12,4.10
2008,04,30,01,13,4.20
2008,04,30,01,14,4.20
2008,04,30,01,15,4.20
2008,04,30,01,16,4.20
2008,04,30,01,17,4.30
2008,04,30,01,18,4.30
2008,04,30,01,19,4.30
2008,04,30,01,20,4.30
2008,04,30,01,21,4.30
2008,04,30,01,22,4.30
2008,04,30,01,23,4.40
2008,04,30,01,24,4.40
2008,04,30,01,25,4.40
2008,04,30,01,26,4.40
2008,04,30,01,27,4.40
2008,04,30,01,28,4.50
2008,04,30,01,29,4.50
2008,04,30,01,30,4.50
2008,04,30,01,31,4.50
2008,04,30,01,32,4.50
2008,04,30,01,33,4.50
2008,04,30,01,34,4.50
2008,04,30,01,35,4.50
2008,04,30,01,36,4.50
2008,04,30,01,37,4.50
2008,04,30,01,38,4.50
2008,04,30,01,39,4.50
2008,04,30,01,40,4.50
2008,04,30,01,41,4.50
2008,04,30,01,42,4.50
2008,04,30,01,43,4.60
2008,04,30,01,44,4.60
2008,04,30,01,45,4.60
2008,04,30,01,46,4.60
2008,04,30,01,47,4.60
2008,04,30,01,48,4.60
2008,04,30,01,49,4.60
2008,04,30,01,50,4.60
2008,04,30,01,51,4.60
2008,04,30,01,52,4.60
2008,04,30,01,53,4.60
2008,04,30,01,54,4.50
2008,04,30,01,55,4.50
2008,04,30,01,56,4.50
2008,04,30,01,57,4.40
2008,04,30,01,58,4.40
2008,04,30,01,59,4.40
2008,04,30,02,00,4.30
2008,04,30,02,01,4.30
2008,04,30,02,02,4.20
2008,04,30,02,03,4.20
2008,04,30,02,04,4.20
2008,04,30,02,05,4.10
2008,04,30,02,06,4.10
2008,04,30,02,07,4.10
2008,04,30,02,08,4.10
2008,04,30,02,09,4.10
2008,04,30,02,10,4.10
2008,04,30,02,11,4.10
2008,04,30,02,12,4.10
2008,04,30,02,13,4.10
2008,04,30,02,14,4.10
2008,04,30,02,15,4.10
2008,04,30,02,16,4.10
2008,04,30,02,17,4.10
2008,04,30,02,18,4.10
2008,04,30,02,19,4.10
2008,04,30,02,20,4.10
2008,04,30,02,21,4.20
2008,04,30,02,22,4.20
2008,04,30,02,23,4.20
2008,04,30,02,24,4.20
2008,04,30,02,25,4.20
2008,04,30,02,26,4.30
2008,04,30,02,27,4.30
2008,04,30,02,28,4.30
2008,04,30,02,29,4.30
2008,04,30,02,30,4.30
2008,04,30,02,31,4.30
2008,04,30,02,32,4.30
2008,04,30,02,33,4.30
2008,04,30,02,34,4.30
2008,04,30,02,35,4.30
2008,04,30,02,36,4.30
2008,04,30,02,37,4.30
2008,04,30,02,38,4.30
2008,04,30,02,39,4.30
2008,04,30,02,40,4.30
2008,04,30,02,41,4.30
2008,04,30,02,42,4.30
2008,04,30,02,43,4.30
2008,04,30,02,44,4.30
2008,04,30,02,45,4.30
2008,04,30,02,46,4.20
2008,04,30,02,47,4.20
2008,04,30,02,48,4.20
2008,04,30,02,49,4.20
2008,04,30,02,50,4.20
2008,04,30,02,51,4.20
2008,04,30,02,52,4.20
2008,04,30,02,53,4.20
2008,04,30,02,54,4.20
2008,04,30,02,55,4.20
2008,04,30,02,56,4.20
2008,04,30,02,57,4.20
2008,04,30,02,58,4.10
2008,04,30,02,59,4.10
2008,04,30,03,00,4.10
2008,04,30,03,01,4.00
2008,04,30,03,02,4.00
2008,04,30,03,03,4.00
2008,04,30,03,04,3.90
2008,04,30,03,05,4.00
2008,04,30,03,06,4.00
2008,04,30,03,07,4.00
2008,04,30,03,08,4.00
2008,04,30,03,09,4.00
2008,04,30,03,10,4.00
2008,04,30,03,11,4.00
2008,04,30,03,12,4.00
2008,04,30,03,13,3.90
2008,04,30,03,14,3.90
2008,04,30,03,15,3.90
2008,04,30,03,16,3.90
2008,04,30,03,17,3.90
2008,04,30,03,18,3.90
2008,04,30,03,19,3.90
2008,04,30,03,20,3.90
2008,04,30,03,21,3.90
2008,04,30,03,22,3.80
2008,04,30,03,23,3.80
2008,04,30,03,24,3.80
2008,04,30,03,25,3.80
2008,04,30,03,26,3.80
2008,04,30,03,27,3.90
2008,04,30,03,28,3.90
2008,04,30,03,29,3.90
2008,04,30,03,30,3.90
2008,04,30,03,31,3.90
2008,04,30,03,32,3.90
2008,04,30,03,33,3.90
2008,04,30,03,34,3.90
2008,04,30,03,35,3.90
2008,04,30,03,36,3.90
2008,04,30,03,37,3.90
2008,04,30,03,38,3.90
2008,04,30,03,39,3.90
2008,04,30,03,40,3.90
2008,04,30,03,41,3.90
2008,04,30,03,42,3.90
2008,04,30,03,43,3.80
2008,04,30,03,44,3.80
2008,04,30,03,45,3.80
2008,04,30,03,46,3.80
2008,04,30,03,47,3.80
2008,04,30,03,48,3.80
2008,04,30,03,49,3.80
2008,04,30,03,50,3.80
2008,04,30,03,51,3.80
2008,04,30,03,52,3.80
2008,04,30,03,53,3.80
2008,04,30,03,54,3.80
2008,04,30,03,55,3.80
2008,04,30,03,56,3.80
2008,04,30,03,57,3.80
2008,04,30,03,58,3.80
2008,04,30,03,59,3.80
2008,04,30,04,00,3.80
2008,04,30,04,01,3.80
2008,04,30,04,02,3.80
2008,04,30,04,03,3.80
2008,04,30,04,04,3.80
2008,04,30,04,05,3.80
2008,04,30,04,06,3.80
2008,04,30,04,07,3.70
2008,04,30,04,08,3.70
2008,04,30,04,09,3.70
2008,04,30,04,10,3.70
2008,04,30,04,11,3.70
2008,04,30,04,12,3.70
2008,04,30,04,13,3.70
2008,04,30,04,14,3.70
2008,04,30,04,15,3.70
2008,04,30,04,16,3.70
2008,04,30,04,17,3.70
2008,04,30,04,18,3.70
2008,04,30,04,19,3.70
2008,04,30,04,20,3.70
2008,04,30,04,21,3.70
2008,04,30,04,22,3.70
2008,04,30,04,23,3.70
2008,04,30,04,24,3.80
2008,04,30,04,25,3.80
2008,04,30,04,26,3.80
2008,04,30,04,27,3.80
2008,04,30,04,28,3.80
2008,04,30,04,29,3.80
2008,04,30,04,30,3.80
2008,04,30,04,31,3.80
2008,04,30,04,32,3.80
2008,04,30,04,33,3.80
2008,04,30,04,34,3.80
2008,04,30,04,35,3.80
2008,04,30,04,36,3.80
2008,04,30,04,37,3.80
2008,04,30,04,38,3.80
2008,04,30,04,39,3.80
2008,04,30,04,40,3.80
2008,04,30,04,41,3.80
2008,04,30,04,42,3.80
2008,04,30,04,43,3.80
2008,04,30,04,44,3.80
2008,04,30,04,45,3.80
2008,04,30,04,46,3.80
2008,04,30,04,47,3.80
2008,04,30,04,48,3.80
2008,04,30,04,49,3.80
2008,04,30,04,50,3.70
2008,04,30,04,51,3.70
2008,04,30,04,52,3.70
2008,04,30,04,53,3.70
2008,04,30,04,54,3.70
2008,04,30,04,55,3.70
2008,04,30,04,56,3.70
2008,04,30,04,57,3.70
2008,04,30,04,58,3.70
2008,04,30,04,59,3.70
2008,04,30,05,00,3.60
2008,04,30,05,01,3.60
2008,04,30,05,02,3.50
2008,04,30,05,03,3.50
2008,04,30,05,04,3.50
2008,04,30,05,05,3.40
2008,04,30,05,06,3.40
2008,04,30,05,07,3.40
2008,04,30,05,08,3.40
2008,04,30,05,09,3.30
2008,04,30,05,10,3.30
2008,04,30,05,11,3.30
2008,04,30,05,12,3.30
2008,04,30,05,13,3.30
2008,04,30,05,14,3.20
2008,04,30,05,15,3.20
2008,04,30,05,16,3.20
2008,04,30,05,17,3.20
2008,04,30,05,18,3.20
2008,04,30,05,19,3.20
2008,04,30,05,20,3.20
2008,04,30,05,21,3.20
2008,04,30,05,22,3.30
2008,04,30,05,23,3.30
2008,04,30,05,24,3.30
2008,04,30,05,25,3.30
2008,04,30,05,26,3.30
2008,04,30,05,27,3.30
2008,04,30,05,28,3.30
2008,04,30,05,29,3.40
2008,04,30,05,30,3.40
2008,04,30,05,31,3.40
2008,04,30,05,32,3.40
2008,04,30,05,33,3.40
2008,04,30,05,34,3.40
2008,04,30,05,35,3.40
2008,04,30,05,36,3.40
2008,04,30,05,37,3.40
2008,04,30,05,38,3.40
2008,04,30,05,39,3.40
2008,04,30,05,40,3.40
2008,04,30,05,41,3.40
2008,04,30,05,42,3.40
2008,04,30,05,43,3.40
2008,04,30,05,44,3.40
2008,04,30,05,45,3.40
2008,04,30,05,46,3.40
2008,04,30,05,47,3.40
2008,04,30,05,48,3.40
2008,04,30,05,49,3.40
2008,04,30,05,50,3.40
2008,04,30,05,51,3.40
2008,04,30,05,52,3.40
2008,04,30,05,53,3.40
2008,04,30,05,54,3.40
2008,04,30,05,55,3.40
2008,04,30,05,56,3.40
2008,04,30,05,57,3.30
2008,04,30,05,58,3.30
2008,04,30,05,59,3.30
2008,04,30,06,00,3.30
2008,04,30,06,01,3.30
2008,04,30,06,02,3.30
2008,04,30,06,03,3.30
2008,04,30,06,04,3.30
2008,04,30,06,05,3.30
2008,04,30,06,06,3.30
2008,04,30,06,07,3.40
2008,04,30,06,08,3.40
2008,04,30,06,09,3.40
2008,04,30,06,10,3.40
2008,04,30,06,11,3.50
2008,04,30,06,12,3.50
2008,04,30,06,13,3.50
2008,04,30,06,14,3.50
2008,04,30,06,15,3.50
2008,04,30,06,16,3.50
2008,04,30,06,17,3.50
2008,04,30,06,18,3.50
2008,04,30,06,19,3.60
2008,04,30,06,20,3.60
2008,04,30,06,21,3.60
2008,04,30,06,22,3.60
2008,04,30,06,23,3.60
2008,04,30,06,24,3.60
2008,04,30,06,25,3.60
2008,04,30,06,26,3.60
2008,04,30,06,27,3.60
2008,04,30,06,28,3.60
2008,04,30,06,29,3.60
2008,04,30,06,30,3.60
2008,04,30,06,31,3.60
2008,04,30,06,32,3.60
2008,04,30,06,33,3.60
2008,04,30,06,34,3.60
2008,04,30,06,35,3.60
2008,04,30,06,36,3.60
2008,04,30,06,37,3.60
2008,04,30,06,38,3.60
2008,04,30,06,39,3.60
2008,04,30,06,40,3.60
2008,04,30,06,41,3.60
2008,04,30,06,42,3.60
2008,04,30,06,43,3.60
2008,04,30,06,44,3.60
2008,04,30,06,45,3.60
2008,04,30,06,46,3.70
2008,04,30,06,47,3.70
2008,04,30,06,48,3.70
2008,04,30,06,49,3.70
2008,04,30,06,50,3.70
2008,04,30,06,51,3.70
2008,04,30,06,52,3.70
2008,04,30,06,54,3.70
2008,04,30,08,56,5.70
2008,04,30,08,57,5.80
2008,04,30,08,58,5.80
2008,04,30,08,59,5.80
2008,04,30,09,00,5.80
2008,04,30,09,01,5.90
2008,04,30,09,02,5.90
2008,04,30,09,03,5.90
2008,04,30,09,04,6.00
2008,04,30,09,05,6.10
2008,04,30,09,06,6.10
2008,04,30,09,07,6.20
2008,04,30,09,08,6.20
2008,04,30,09,09,6.20
2008,04,30,09,10,6.20
2008,04,30,09,11,6.20
2008,04,30,09,12,6.20
2008,04,30,09,13,6.20
2008,04,30,09,14,6.30
2008,04,30,09,15,6.30
2008,04,30,09,16,6.40
2008,04,30,09,17,6.40
2008,04,30,09,18,6.50
2008,04,30,09,19,6.50
2008,04,30,09,20,6.50
2008,04,30,09,21,6.50
2008,04,30,09,22,6.50
2008,04,30,09,23,6.40
2008,04,30,09,24,6.50
2008,04,30,09,25,6.50
2008,04,30,09,26,6.50
2008,04,30,09,27,6.50
2008,04,30,09,28,6.40
2008,04,30,09,29,6.40
2008,04,30,09,30,6.40
2008,04,30,09,31,6.40
2008,04,30,09,32,6.40
2008,04,30,09,33,6.50
2008,04,30,09,34,6.60
2008,04,30,09,35,6.60
2008,04,30,09,36,6.60
2008,04,30,09,37,6.60
2008,04,30,09,38,6.60
2008,04,30,09,39,6.50
2008,04,30,09,40,6.50
2008,04,30,09,41,6.50
2008,04,30,09,42,6.60
2008,04,30,09,43,6.70
2008,04,30,09,44,6.70
2008,04,30,09,45,6.70
2008,04,30,09,46,6.70
2008,04,30,09,47,6.70
2008,04,30,09,48,6.80
2008,04,30,09,49,6.80
2008,04,30,09,50,6.80
2008,04,30,09,51,6.80
2008,04,30,09,52,6.80
2008,04,30,09,53,6.90
2008,04,30,09,54,6.90
2008,04,30,09,55,6.90
2008,04,30,09,56,6.90
2008,04,30,09,57,7.00
2008,04,30,09,58,7.00
2008,04,30,09,59,7.00
2008,04,30,10,00,7.00
2008,04,30,10,01,7.00
2008,04,30,10,02,7.10
2008,04,30,10,03,7.10
2008,04,30,10,04,7.20
2008,04,30,10,05,7.20
2008,04,30,10,06,7.10
2008,04,30,10,07,7.10
2008,04,30,10,08,7.00
2008,04,30,10,09,7.00
2008,04,30,10,10,7.10
2008,04,30,10,11,7.10
2008,04,30,10,12,7.10
2008,04,30,10,13,7.10
2008,04,30,10,14,7.00
2008,04,30,10,15,7.00
2008,04,30,10,16,6.90
2008,04,30,10,17,6.90
2008,04,30,10,18,6.90
2008,04,30,10,19,7.00
2008,04,30,10,20,7.00
2008,04,30,10,21,6.90
2008,04,30,10,22,6.90
2008,04,30,10,23,6.80
2008,04,30,10,24,6.70
2008,04,30,10,25,6.80
2008,04,30,10,26,6.80
2008,04,30,10,27,6.80
2008,04,30,10,28,6.90
2008,04,30,10,29,7.00
2008,04,30,10,30,7.00
2008,04,30,10,31,7.10
2008,04,30,10,32,7.20
2008,04,30,10,33,7.30
2008,04,30,10,34,7.30
2008,04,30,10,35,7.30
2008,04,30,10,36,7.20
2008,04,30,10,37,7.20
2008,04,30,10,38,7.10
2008,04,30,10,39,7.00
2008,04,30,10,40,6.90
2008,04,30,10,41,6.80
2008,04,30,10,42,6.80
2008,04,30,10,43,6.90
2008,04,30,10,44,7.00
2008,04,30,10,45,7.00
2008,04,30,10,46,7.10
2008,04,30,10,47,7.10
2008,04,30,10,48,7.20
2008,04,30,10,49,7.20
2008,04,30,10,50,7.30
2008,04,30,10,51,7.20
2008,04,30,10,52,7.20
2008,04,30,10,53,7.20
2008,04,30,10,54,7.10
2008,04,30,10,55,7.20
2008,04,30,10,56,7.20
2008,04,30,10,57,7.20
2008,04,30,10,58,7.30
2008,04,30,10,59,7.30
2008,04,30,11,00,7.40
2008,04,30,11,01,7.50
2008,04,30,11,02,7.60
2008,04,30,11,03,7.70
2008,04,30,11,04,7.70
2008,04,30,11,05,7.60
2008,04,30,11,06,7.50
2008,04,30,11,07,7.40
2008,04,30,11,08,7.30
2008,04,30,11,09,7.30
2008,04,30,11,10,7.30
2008,04,30,11,11,7.30
2008,04,30,11,12,7.30
2008,04,30,11,13,7.30
2008,04,30,11,14,7.40
2008,04,30,11,15,7.50
2008,04,30,11,16,7.50
2008,04,30,11,17,7.50
2008,04,30,11,18,7.60
2008,04,30,11,19,7.60
2008,04,30,11,20,7.60
2008,04,30,11,21,7.60
2008,04,30,11,22,7.60
2008,04,30,11,23,7.60
2008,04,30,11,24,7.60
2008,04,30,11,25,7.50
2008,04,30,11,26,7.50
2008,04,30,11,27,7.50
2008,04,30,11,28,7.60
2008,04,30,11,29,7.60
2008,04,30,11,30,7.50
2008,04,30,11,31,7.50
2008,04,30,11,32,7.60
2008,04,30,11,33,7.60
2008,04,30,11,34,7.60
2008,04,30,11,35,7.60
2008,04,30,11,36,7.40
2008,04,30,11,37,7.40
2008,04,30,11,38,7.40
2008,04,30,11,39,7.30
2008,04,30,11,40,7.30
2008,04,30,11,41,7.40
2008,04,30,11,42,7.40
2008,04,30,11,43,7.40
2008,04,30,11,44,7.50
2008,04,30,11,45,7.50
2008,04,30,11,46,7.60
2008,04,30,11,47,7.60
2008,04,30,11,48,7.70
2008,04,30,11,49,7.70
2008,04,30,11,50,7.60
2008,04,30,11,51,7.60
2008,04,30,11,52,7.60
2008,04,30,11,53,7.60
2008,04,30,11,54,7.60
2008,04,30,11,55,7.60
2008,04,30,11,56,7.70
2008,04,30,11,57,7.70
2008,04,30,11,58,7.80
2008,04,30,11,59,7.70
2008,04,30,12,00,7.70
2008,04,30,12,01,7.70
2008,04,30,12,02,7.70
2008,04,30,12,03,7.70
2008,04,30,12,04,7.80
2008,04,30,12,05,7.80
2008,04,30,12,06,7.80
2008,04,30,12,07,7.80
2008,04,30,12,08,7.80
2008,04,30,12,09,7.80
2008,04,30,12,10,7.70
2008,04,30,12,11,7.70
2008,04,30,12,12,7.70
2008,04,30,12,13,7.80
2008,04,30,12,14,7.80
2008,04,30,12,15,7.90
2008,04,30,12,16,8.00
2008,04,30,12,17,8.20
2008,04,30,12,18,8.20
2008,04,30,12,19,8.30
2008,04,30,12,20,8.30
2008,04,30,12,21,8.30
2008,04,30,12,22,8.30
2008,04,30,12,23,8.30
2008,04,30,12,24,8.20
2008,04,30,12,25,8.10
2008,04,30,12,26,8.00
2008,04,30,12,27,8.00
2008,04,30,12,28,8.10
2008,04,30,12,29,8.20
2008,04,30,12,30,8.30
2008,04,30,12,31,8.40
2008,04,30,12,32,8.50
2008,04,30,12,33,8.60
2008,04,30,12,34,8.50
2008,04,30,12,35,8.50
2008,04,30,12,36,8.40
2008,04,30,12,37,8.40
2008,04,30,12,38,8.50
2008,04,30,12,39,8.50
2008,04,30,12,40,8.50
2008,04,30,12,41,8.40
2008,04,30,12,42,8.40
2008,04,30,12,43,8.50
2008,04,30,12,44,8.60
2008,04,30,12,45,8.60
2008,04,30,12,46,8.60
2008,04,30,12,47,8.60
2008,04,30,12,48,8.60
2008,04,30,12,49,8.50
2008,04,30,12,50,8.40
2008,04,30,12,51,8.40
2008,04,30,12,52,8.40
2008,04,30,12,53,8.30
2008,04,30,12,54,8.30
2008,04,30,12,55,8.40
2008,04,30,12,56,8.40
2008,04,30,12,57,8.40
2008,04,30,12,58,8.40
2008,04,30,12,59,8.40
2008,04,30,13,00,8.30
2008,04,30,13,01,8.20
2008,04,30,13,02,8.20
2008,04,30,13,03,8.10
2008,04,30,13,04,8.10
2008,04,30,13,05,8.20
2008,04,30,13,06,8.40
2008,04,30,13,07,8.50
2008,04,30,13,08,8.50
2008,04,30,13,09,8.40
2008,04,30,13,10,8.40
2008,04,30,13,11,8.40
2008,04,30,13,12,8.30
2008,04,30,13,13,8.30
2008,04,30,13,14,8.30
2008,04,30,13,15,8.30
2008,04,30,13,16,8.40
2008,04,30,13,17,8.30
2008,04,30,13,18,8.30
2008,04,30,13,19,8.30
2008,04,30,13,20,8.40
2008,04,30,13,21,8.60
2008,04,30,13,22,8.70
2008,04,30,13,23,8.90
2008,04,30,13,24,9.10
2008,04,30,13,25,9.30
2008,04,30,13,26,9.30
2008,04,30,13,27,9.40
2008,04,30,13,28,9.50
2008,04,30,13,29,9.60
2008,04,30,13,30,9.70
2008,04,30,13,31,9.80
2008,04,30,13,32,9.90
2008,04,30,13,33,9.90
2008,04,30,13,34,9.90
2008,04,30,13,35,9.90
2008,04,30,13,36,9.90
2008,04,30,13,37,9.80
2008,04,30,13,38,9.70
2008,04,30,13,39,9.70
2008,04,30,13,40,9.60
2008,04,30,13,41,9.60
2008,04,30,13,42,9.50
2008,04,30,13,43,9.40
2008,04,30,13,44,9.30
2008,04,30,13,45,9.20
2008,04,30,13,46,9.20
2008,04,30,13,47,9.10
2008,04,30,13,48,9.00
2008,04,30,13,49,9.00
2008,04,30,13,50,9.00
2008,04,30,13,51,8.90
2008,04,30,13,52,8.90
2008,04,30,13,53,8.90
2008,04,30,13,54,8.90
2008,04,30,13,55,8.90
2008,04,30,13,56,8.80
2008,04,30,13,57,8.90
2008,04,30,13,58,9.00
2008,04,30,13,59,9.10
2008,04,30,14,00,9.20
2008,04,30,14,01,9.30
2008,04,30,14,02,9.30
2008,04,30,14,03,9.40
2008,04,30,14,04,9.50
2008,04,30,14,05,9.60
2008,04,30,14,06,9.50
2008,04,30,14,07,9.50
2008,04,30,14,08,9.50
2008,04,30,14,09,9.40
2008,04,30,14,10,9.40
2008,04,30,14,11,9.40
2008,04,30,14,12,9.40
2008,04,30,14,13,9.20
2008,04,30,14,14,9.20
2008,04,30,14,15,9.30
2008,04,30,14,16,9.30
2008,04,30,14,17,9.30
2008,04,30,14,18,9.40
2008,04,30,14,19,9.40
2008,04,30,14,20,9.40
2008,04,30,14,21,9.40
2008,04,30,14,22,9.40
2008,04,30,14,23,9.30
2008,04,30,14,24,9.20
2008,04,30,14,25,9.10
2008,04,30,14,26,9.10
2008,04,30,14,27,9.20
2008,04,30,14,28,9.20
2008,04,30,14,29,9.20
2008,04,30,14,30,9.10
2008,04,30,14,31,9.20
2008,04,30,14,32,9.10
2008,04,30,14,33,9.10
2008,04,30,14,34,9.00
2008,04,30,14,35,9.10
2008,04,30,14,36,9.20
2008,04,30,14,37,9.20
2008,04,30,14,38,9.20
2008,04,30,14,39,9.30
2008,04,30,14,40,9.40
2008,04,30,14,41,9.50
2008,04,30,14,42,9.60
2008,04,30,14,43,9.70
2008,04,30,14,44,9.70
2008,04,30,14,45,9.50
2008,04,30,14,46,9.40
2008,04,30,14,47,9.20
2008,04,30,14,48,9.20
2008,04,30,14,49,9.20
2008,04,30,14,50,9.20
2008,04,30,14,51,9.10
2008,04,30,14,52,9.00
2008,04,30,14,53,8.90
2008,04,30,14,54,8.90
2008,04,30,14,55,9.00
2008,04,30,14,56,9.10
2008,04,30,14,57,9.10
2008,04,30,14,58,9.10
2008,04,30,14,59,9.20
2008,04,30,15,00,9.30
2008,04,30,15,01,9.40
2008,04,30,15,02,9.50
2008,04,30,15,03,9.60
2008,04,30,15,04,9.60
2008,04,30,15,05,9.70
2008,04,30,15,06,9.70
2008,04,30,15,07,9.60
2008,04,30,15,08,9.40
2008,04,30,15,09,9.20
2008,04,30,15,10,9.10
2008,04,30,15,11,9.00
2008,04,30,15,12,9.00
2008,04,30,15,13,9.10
2008,04,30,15,14,9.10
2008,04,30,15,15,9.20
2008,04,30,15,16,9.20
2008,04,30,15,17,9.20
2008,04,30,15,18,9.30
2008,04,30,15,19,9.40
2008,04,30,15,20,9.50
2008,04,30,15,21,9.60
2008,04,30,15,22,9.60
2008,04,30,15,23,9.60
2008,04,30,15,24,9.60
2008,04,30,15,25,9.40
2008,04,30,15,26,9.40
2008,04,30,15,27,9.50
2008,04,30,15,28,9.60
2008,04,30,15,29,9.60
2008,04,30,15,30,9.70
2008,04,30,15,31,9.70
2008,04,30,15,32,9.70
2008,04,30,15,33,9.70
2008,04,30,15,34,9.80
2008,04,30,15,35,9.80
2008,04,30,15,36,9.80
2008,04,30,15,37,9.70
2008,04,30,15,38,9.60
2008,04,30,15,39,9.60
2008,04,30,15,40,9.70
2008,04,30,15,41,9.70
2008,04,30,15,42,9.80
2008,04,30,15,43,10.00
2008,04,30,15,44,10.00
2008,04,30,15,45,10.10
2008,04,30,15,46,10.10
2008,04,30,15,47,10.20
2008,04,30,15,48,10.20
2008,04,30,15,49,10.20
2008,04,30,15,50,10.20
2008,04,30,15,51,10.20
2008,04,30,15,52,10.30
2008,04,30,15,53,10.20
2008,04,30,15,54,10.10
2008,04,30,15,55,10.00
2008,04,30,15,56,10.00
2008,04,30,15,57,9.90
2008,04,30,15,58,9.80
2008,04,30,15,59,9.80
2008,04,30,16,00,9.80
2008,04,30,16,01,9.80
2008,04,30,16,02,9.70
2008,04,30,16,03,9.70
2008,04,30,16,04,9.60
2008,04,30,16,05,9.60
2008,04,30,16,06,9.60
2008,04,30,16,07,9.60
2008,04,30,16,08,9.50
2008,04,30,16,09,9.40
2008,04,30,16,10,9.30
2008,04,30,16,11,9.30
2008,04,30,16,12,9.30
2008,04,30,16,13,9.40
2008,04,30,16,14,9.50
2008,04,30,16,15,9.60
2008,04,30,16,16,9.70
2008,04,30,16,17,9.80
2008,04,30,16,18,9.80
2008,04,30,16,19,9.70
2008,04,30,16,20,9.60
2008,04,30,16,21,9.50
2008,04,30,16,22,9.50
2008,04,30,16,23,9.50
2008,04,30,16,24,9.50
2008,04,30,16,25,9.50
2008,04,30,16,26,9.40
2008,04,30,16,27,9.30
2008,04,30,16,28,9.20
2008,04,30,16,29,9.10
2008,04,30,16,30,9.00
2008,04,30,16,31,8.90
2008,04,30,16,32,8.80
2008,04,30,16,33,8.80
2008,04,30,16,34,8.80
2008,04,30,16,35,8.80
2008,04,30,16,36,8.80
2008,04,30,16,37,8.80
2008,04,30,16,38,8.70
2008,04,30,16,39,8.70
2008,04,30,16,40,8.70
2008,04,30,16,41,8.80
2008,04,30,16,42,8.90
2008,04,30,16,43,9.00
2008,04,30,16,44,9.10
2008,04,30,16,45,9.20
2008,04,30,16,46,9.20
2008,04,30,16,47,9.20
2008,04,30,16,48,9.20
2008,04,30,16,49,9.20
2008,04,30,16,50,9.30
2008,04,30,16,51,9.30
2008,04,30,16,52,9.30
2008,04,30,16,53,9.40
2008,04,30,16,54,9.40
2008,04,30,16,55,9.40
2008,04,30,16,56,9.40
2008,04,30,16,57,9.40
2008,04,30,16,58,9.40
2008,04,30,16,59,9.40
2008,04,30,17,00,9.50
2008,04,30,17,01,9.50
2008,04,30,17,02,9.60
2008,04,30,17,03,9.60
2008,04,30,17,04,9.60
2008,04,30,17,05,9.60
2008,04,30,17,06,9.70
2008,04,30,17,07,9.70
2008,04,30,17,08,9.70
2008,04,30,17,09,9.80
2008,04,30,17,10,9.80
2008,04,30,17,11,9.80
2008,04,30,17,12,9.80
2008,04,30,17,13,9.80
2008,04,30,17,14,9.70
2008,04,30,17,15,9.60
2008,04,30,17,16,9.50
2008,04,30,17,17,9.40
2008,04,30,17,18,9.40
2008,04,30,17,19,9.40
2008,04,30,17,20,9.50
2008,04,30,17,21,9.60
2008,04,30,17,22,9.60
2008,04,30,17,23,9.70
2008,04,30,17,24,9.70
2008,04,30,17,25,9.80
2008,04,30,17,26,9.80
2008,04,30,17,27,9.90
2008,04,30,17,28,9.80
2008,04,30,17,29,9.80
2008,04,30,17,30,9.70
2008,04,30,17,31,9.60
2008,04,30,17,32,9.60
2008,04,30,17,33,9.50
2008,04,30,17,34,9.50
2008,04,30,17,35,9.50
2008,04,30,17,36,9.50
2008,04,30,17,37,9.50
2008,04,30,17,38,9.50
2008,04,30,17,39,9.60
2008,04,30,17,40,9.60
2008,04,30,17,41,9.60
2008,04,30,17,42,9.60
2008,04,30,17,43,9.60
2008,04,30,17,44,9.60
2008,04,30,17,45,9.60
2008,04,30,17,46,9.60
2008,04,30,17,47,9.60
2008,04,30,17,48,9.60
2008,04,30,17,49,9.60
2008,04,30,17,50,9.50
2008,04,30,17,51,9.40
2008,04,30,17,52,9.30
2008,04,30,17,53,9.30
2008,04,30,17,54,9.30
2008,04,30,17,55,9.30
2008,04,30,17,56,9.30
2008,04,30,17,57,9.30
2008,04,30,17,58,9.30
2008,04,30,17,59,9.30
2008,04,30,18,00,9.40
2008,04,30,18,01,9.40
2008,04,30,18,02,9.40
2008,04,30,18,03,9.40
2008,04,30,18,04,9.40
2008,04,30,18,05,9.40
2008,04,30,18,06,9.50
2008,04,30,18,07,9.40
2008,04,30,18,08,9.40
2008,04,30,18,09,9.30
2008,04,30,18,10,9.40
2008,04,30,18,11,9.40
2008,04,30,18,12,9.50
2008,04,30,18,13,9.50
2008,04,30,18,14,9.50
2008,04,30,18,15,9.50
2008,04,30,18,16,9.50
2008,04,30,18,17,9.60
2008,04,30,18,18,9.60
2008,04,30,18,19,9.60
2008,04,30,18,20,9.60
2008,04,30,18,21,9.60
2008,04,30,18,22,9.60
2008,04,30,18,23,9.70
2008,04,30,18,24,9.70
2008,04,30,18,25,9.70
2008,04,30,18,26,9.70
2008,04,30,18,27,9.70
2008,04,30,18,28,9.70
2008,04,30,18,29,9.70
2008,04,30,18,30,9.70
2008,04,30,18,31,9.70
2008,04,30,18,32,9.70
2008,04,30,18,33,9.70
2008,04,30,18,34,9.60
2008,04,30,18,35,9.60
2008,04,30,18,36,9.60
2008,04,30,18,37,9.60
2008,04,30,18,38,9.60
2008,04,30,18,39,9.60
2008,04,30,18,40,9.50
2008,04,30,18,41,9.50
2008,04,30,18,42,9.50
2008,04,30,18,43,9.50
2008,04,30,18,44,9.60
2008,04,30,18,45,9.60
2008,04,30,18,46,9.60
2008,04,30,18,47,9.60
2008,04,30,18,48,9.60
2008,04,30,18,49,9.60
2008,04,30,18,50,9.60
2008,04,30,18,51,9.60
2008,04,30,18,52,9.60
2008,04,30,18,53,9.60
2008,04,30,18,54,9.60
2008,04,30,18,55,9.60
2008,04,30,18,56,9.60
2008,04,30,18,57,9.60
2008,04,30,18,58,9.60
2008,04,30,18,59,9.50
2008,04,30,19,00,9.50
2008,04,30,19,01,9.50
2008,04,30,19,02,9.40
2008,04,30,19,03,9.40
2008,04,30,19,04,9.40
2008,04,30,19,05,9.30
2008,04,30,19,06,9.30
2008,04,30,19,07,9.30
2008,04,30,19,08,9.20
2008,04,30,19,09,9.20
2008,04,30,19,10,9.20
2008,04,30,19,11,9.20
2008,04,30,19,12,9.10
2008,04,30,19,13,9.10
2008,04,30,19,14,9.10
2008,04,30,19,15,9.10
2008,04,30,19,16,9.10
2008,04,30,19,17,9.00
2008,04,30,19,18,9.00
2008,04,30,19,19,9.00
2008,04,30,19,20,9.00
2008,04,30,19,21,9.00
2008,04,30,19,22,9.00
2008,04,30,19,23,9.00
2008,04,30,19,24,9.00
2008,04,30,19,25,9.00
2008,04,30,19,26,9.00
2008,04,30,19,27,9.00
2008,04,30,19,28,9.00
2008,04,30,19,29,8.90
2008,04,30,19,30,8.90
2008,04,30,19,31,8.90
2008,04,30,19,32,8.90
2008,04,30,19,33,8.80
2008,04,30,19,34,8.80
2008,04,30,19,35,8.80
2008,04,30,19,36,8.80
2008,04,30,19,37,8.80
2008,04,30,19,38,8.70
2008,04,30,19,39,8.70
2008,04,30,19,40,8.70
2008,04,30,19,41,8.70
2008,04,30,19,42,8.70
2008,04,30,19,43,8.70
2008,04,30,19,44,8.60
2008,04,30,19,45,8.60
2008,04,30,19,46,8.60
2008,04,30,19,47,8.60
2008,04,30,19,48,8.60
2008,04,30,19,49,8.60
2008,04,30,19,50,8.60
2008,04,30,19,51,8.60
2008,04,30,19,52,8.50
2008,04,30,19,53,8.50
2008,04,30,19,54,8.50
2008,04,30,19,55,8.50
2008,04,30,19,56,8.50
2008,04,30,19,57,8.50
2008,04,30,19,58,8.50
2008,04,30,19,59,8.50
2008,04,30,20,00,8.50
2008,04,30,20,01,8.50
2008,04,30,20,02,8.40
2008,04,30,20,03,8.40
2008,04,30,20,04,8.40
2008,04,30,20,05,8.40
2008,04,30,20,06,8.40
2008,04,30,20,07,8.40
2008,04,30,20,08,8.40